Location: Rosenheim
(47.8408°N, 12.2113°E)
Time: 22:14:20
(UTC+01:00)

ISS - Pass Details

Date: 07 January 2018
Orbit: 401 x 407 km, 51.6° (Epoch: 17 January)

Event Time Altitude Azimuth Distance (km) Brightness Sun altitude
Exits shadow 05:57:42 40° 9° (N) 613 -3.0 -19.6°
Drops below altitude 10° 06:00:42 10° 74° (ENE) 1,468 -0.1 -19.1°
Sets 06:02:52 0° 82° (E) 2,329 1.3 -18.7°
